Home > Weather > Bridgeport > Past weeks

Flag for USA Past Weather in Bridgeport, Connecticut, USA — Yesterday and Last 2 Weeks

Now
78 °F

Clear.


Feels Like: 80 °F
Forecast: 67 / 83 °F
Wind: 6 mph from Southwest

Location: Sikorsky Memorial Airport

Current Time: Aug 27, 2016 at 10:27:42 PM

Latest Report: Aug 27, 2016 at 9:52 PM


Visibility: 10 mi

Pressure: 30.22 "Hg

Humidity: 64%

Dew Point: 65 °F

Location of BridgeportLocation

Past Weather in Bridgeport — Graph

°F

Bridgeport Temperature Yesterday

Maximum temperature yesterday: 92 °F (at 3:52 PM)
Minimum temperature yesterday: 77 °F (at 12:52 AM)
Average temperature yesterday: 82 °F

High & Low Weather Summary for the Past Weeks

 TemperatureHumidityPressure
High93 °F (Aug 13, 3:52 PM)90% (Aug 22, 12:52 AM)30.31 "Hg (Aug 22, 12:52 AM)
Low60 °F (Aug 23, 3:52 AM)32% (Aug 22, 3:52 PM)29.77 "Hg (Aug 21, 10:52 PM)
Average79 °F67%30.02 "Hg
* Reported Aug 12 8:52 PM — Aug 27 8:52 PM, Bridgeport, Weather by CustomWeather, © 2016

Note: Actual official high and low records may vary slightly from our data, if they occured in-between our weather recording intervals... More about our weather records

Advertising

Bridgeport Weather History for the Previous 24 Hours

Scroll right to see more
 ConditionsComfort  
Time TempWeatherWind HumidityBarometerVisibility
8:52 PM
Sat, Aug 27
78 °FClear.5 mph69%30.21 "Hg10 mi
7:52 PM81 °FSunny.3 mph56%30.19 "Hg10 mi
6:52 PM82 °FSunny.6 mph55%30.17 "Hg10 mi
5:52 PM84 °FSunny.6 mph45%30.17 "Hg10 mi
4:52 PM85 °FSunny.6 mph39%30.16 "Hg10 mi
3:52 PM85 °FSunny.9 mph39%30.17 "Hg10 mi
2:52 PM84 °FSunny.10 mph43%30.17 "Hg10 mi
1:52 PM84 °FSunny.10 mph43%30.18 "Hg10 mi
12:52 PM83 °FSunny.10 mph50%30.18 "Hg10 mi
11:52 AM83 °FSunny.13 mph50%30.18 "Hg10 mi
10:52 AM82 °FSunny.7 mph51%30.19 "Hg10 mi
9:52 AM80 °FSunny.5 mph58%30.19 "Hg10 mi
8:52 AM78 °FSunny.6 mph60%30.17 "Hg10 mi
7:52 AM75 °FSunny.7 mph62%30.16 "Hg10 mi
6:52 AM72 °FClear.6 mph66%30.16 "Hg10 mi
5:52 AM72 °FClear.6 mph66%30.13 "Hg10 mi
4:52 AM74 °FClear.8 mph60%30.10 "Hg10 mi
3:52 AM75 °FClear.13 mph58%30.09 "Hg10 mi
2:52 AM74 °FClear.7 mph60%30.09 "Hg10 mi
1:52 AM76 °FClear.10 mph56%30.08 "Hg10 mi
12:52 AM78 °FClear.9 mph50%30.07 "Hg10 mi
11:52 PM
Fri, Aug 26
80 °FClear.9 mph47%30.06 "Hg10 mi
10:52 PM80 °FClear.5 mph49%30.04 "Hg10 mi
Weather by CustomWeather, © 2016

See weather overviewHow to use our weather pages